Location: Sternwarte ZA, Rosenfeld-Brittheim
(48.2889°N, 8.6789°E)
Time: 01:20:10
(UTC+01:00)

Tiangong 1 - Visible Passes

Search period start: 21 January 2018 00:00
Search period end: 31 January 2018 00:00
Orbit: 262 x 287 km, 42.8° (Epoch: 20 January)

Date Brightness Start Highest point End Pass type
(mag) Time Alt. Az. Time Alt. Az. Time Alt. Az.
21 Jan 2.8 17:56:50 10° WSW 17:58:49 21° S 18:00:46 10° SE visible
22 Jan 3.1 17:56:14 10° WSW 17:58:01 18° SSW 17:59:48 10° SE visible
23 Jan 3.4 17:55:37 10° SW 17:57:05 14° SSW 17:58:31 10° SSE visible
24 Jan 3.8 17:55:19 10° SW 17:55:57 11° SSW 17:56:34 10° S visible
